#timestamp,LO_Frequency,Hit 
1504285215.3,286046994.2,N
1504285235.2,286046998.7,N
1504285255.9,286046999.5,N
1504285275.7,286046997.8,N
1504285295.6,286046998.3,N
1504285315.4,286047003.9,N
1504285335.2,286047005.3,N
1504285355.1,286047002.1,N
1504285356.0,286047002.1,N
1504285375.8,286046999.9,N
1504285395.6,286047000.2,N
1504285415.5,286047000.3,N
1504285435.3,286047004.0,N
1504285455.1,286047003.0,N
1504285475.8,286047002.0,N
1504285495.7,286047002.8,N
1504285515.5,286046998.5,N
1504285535.3,286047001.6,N
1504285555.2,286047005.4,N
1504285575.9,286047008.3,N
1504285595.7,286047004.6,N
1504285615.6,286047006.8,N
1504285635.4,286047008.6,N
1504285655.2,286047006.1,N
1504285675.1,286047004.0,N
1504285676.0,286047004.0,N
1504285695.8,286047006.5,N
1504285715.6,286047006.9,N
1504285735.5,286047004.8,N
1504285755.3,286047005.9,N
1504285775.1,286047003.9,N
1504285795.9,286047002.7,N
1504285815.7,286047005.0,N
1504285835.5,286047003.8,N
1504285855.3,286047000.3,N
1504285875.2,286047000.2,N
1504285895.0,286047000.5,N
1504285895.9,286047000.5,N
1504285915.7,286047005.4,N
1504285935.6,286047005.3,N
1504285955.4,286047001.9,N
1504285975.2,286047007.1,N
1504285995.1,286047008.1,P
1504285996.0,286047008.1,P
1504286015.8,286047006.8,P
1504286035.6,286047004.1,N
1504286055.5,286047004.2,N
1504286075.3,286047002.2,N
1504286095.1,286047002.9,N
1504286115.9,286047003.2,N
1504286135.7,286047002.5,N
1504286155.5,286047001.5,N
1504286175.4,286047004.4,N
1504286195.2,286047005.0,N
1504286215.0,286047005.6,N
1504286215.9,286047005.6,N
1504286235.8,286047001.3,N
1504286255.6,286047004.2,N
1504286275.4,286047002.8,N
1504286295.3,286046999.2,N
1504286315.1,286046997.9,N
1504286316.0,286046997.9,N
1504286335.8,286046999.2,N
1504286355.6,286047002.3,N
1504286375.5,286047001.7,N
1504286395.3,286047003.6,N
1504286415.1,286047000.3,N
1504286435.9,286046995.8,N
1504286455.7,286046999.0,N
1504286475.5,286047002.2,N
1504286495.4,286046999.9,N
1504286515.2,286046999.4,N
1504286535.0,286046995.5,N
1504286535.9,286046995.5,N
1504286555.8,286046995.4,N
1504286575.6,286046997.5,N
1504286595.4,286046999.8,N
1504286615.3,286047005.5,N
1504286635.1,286047002.7,N
1504286636.0,286047002.7,N
1504286655.8,286047002.5,N
1504286675.7,286046997.0,N
1504286695.5,286046999.1,N
1504286715.3,286046998.6,N
1504286735.1,286047000.6,N
1504286755.9,286047000.8,N
1504286775.7,286046999.6,N
1504286795.5,286046997.9,N
1504286815.4,286046996.2,N
1504286835.2,286046993.4,N
1504286855.0,286046997.2,N
1504286855.9,286046997.2,N
1504286875.8,286047001.1,N
1504286895.6,286047000.0,N
1504286915.4,286046990.1,P
1504286935.3,286046993.2,N
1504286955.1,286046994.8,N
1504286975.8,286046994.7,N
1504286995.7,286046996.2,N
1504287015.5,286046995.7,N
1504287035.3,286046993.4,N
1504287055.2,286046996.5,N
1504287075.9,286046998.9,N
1504287095.7,286046998.6,N
1504287115.6,286046998.0,N
1504287135.4,286046997.6,N
1504287155.2,286047001.0,N
1504287175.0,286046997.5,N
1504287176.0,286046997.5,N
1504287195.8,286046996.6,N
1504287215.6,286046996.6,N
1504287235.4,286046997.4,N
1504287255.3,286046999.1,N
1504287275.1,286047001.1,N
1504287295.8,286047001.0,N
1504287315.7,286047003.6,N
1504287335.5,286047001.3,N
1504287355.3,286047000.1,N
1504287375.2,286047000.0,N
1504287395.9,286047004.0,N
1504287415.7,286047003.2,N
1504287435.5,286047001.3,N
1504287455.4,286046999.9,N
1504287475.2,286047005.6,N
1504287495.0,286047004.5,N
1504287495.9,286047004.5,N
1504287515.8,286047009.0,N
1504287535.6,286047005.6,N
1504287555.4,286047004.9,N
1504287575.3,286047004.8,N
1504287595.1,286047008.7,N
1504287615.8,286047012.3,P
1504287635.7,286047008.7,N
1504287655.5,286047009.2,N
1504287675.3,286047009.1,N
1504287695.2,286047011.4,P
1504287715.0,286047005.7,P
1504287715.9,286047005.7,N
1504287735.7,286047005.1,N
1504287755.6,286047008.2,P
1504287775.4,286047017.0,P
1504287795.3,286047019.7,P
1504287815.1,286047011.2,N
1504287816.0,286047011.2,N
1504287835.8,286047007.1,N
1504287855.6,286047008.8,N
1504287875.5,286047003.9,N
1504287895.3,286047001.4,N
1504287915.1,286047004.4,N
1504287935.9,286047005.7,N
1504287955.7,286047004.5,N
1504287975.5,286047004.0,N
1504287995.4,286047001.6,N
1504288015.2,286047005.2,N
1504288035.0,286047006.4,N
1504288035.9,286047006.4,N
1504288055.8,286047003.1,N
1504288075.6,286047001.0,N
1504288095.4,286046999.7,N
1504288115.3,286047002.1,N
1504288135.1,286047003.0,N
1504288136.0,286047003.0,N
1504288155.8,286047012.0,N
1504288175.6,286047010.9,N
1504288195.5,286047006.8,N
1504288215.3,286047007.7,N
1504288235.1,286047006.8,N
1504288255.9,286047006.9,N
1504288275.7,286047004.0,N
1504288295.5,286047003.3,N
1504288315.4,286047005.4,N
1504288335.2,286047000.7,N
1504288355.0,286046996.5,N
1504288355.9,286046996.5,N
1504288375.8,286046998.6,N
1504288395.6,286047003.4,N
1504288415.4,286047009.1,N
1504288435.3,286047009.0,N
1504288455.1,286047006.8,N
1504288456.0,286047006.8,N
1504288475.8,286047004.0,N
1504288495.7,286047003.6,N
1504288515.5,286047003.4,N
1504288535.3,286047006.6,N
1504288555.2,286047007.6,N
1504288575.9,286047005.1,N
1504288595.7,286047004.0,N
1504288615.5,286047002.6,N
1504288635.4,286047001.2,N
1504288655.2,286047005.4,N
1504288675.0,286047003.2,N
1504288675.9,286047003.2,N
1504288695.8,286047006.0,N
1504288715.6,286047006.4,N
1504288735.4,286047011.3,P
1504288755.3,286047006.1,N
1504288775.1,286047006.4,N
1504288795.8,286047003.4,N
